STARLINK-2486 (48143 NORAD) Tracking and Keplerian Element Data

This shows tracking and keplerian element data for the satellite.

Feedback or suggestion? Click here.




ElementValue
Catalog48143
NameSTARLINK-2486
Epoch Orbit180
Epoch Day136.75001157
Epoch Year2021
RAAN146.2472
Inclination53.0479
Eccentricity0.0002544
Argument of Perigee24.8006
Mean Anonmoly4.4561
Mean Motion15.73216199
Decay Rate-3.187E-05
L11 48143U 21027BD 21136.75001157 -.00003187 00000-0 -18260-4 0 9993
L22 48143 53.0479 146.2472 0002544 24.8006 4.4561 15.73216199 1804

Live tracking and technical data element details for STARLINK-2486 (NORAD 48143). STARLINK-2486 can be tracked NOW for your location showing map with azimuth and elevation plus other details from your city location.

Track the satellite on the map from your city or location and see movement details for azimuth, elevation, latitude, longitude, range, height, and movement on the map or in text.







IsCatalogInMostPopularTable: catalog: 48143, numindb: 13
Update: records affected: 1



GetName: 48143 STARLINK-2486

Hit Count: updated at: Mon, 17 May 2021 16:01:27 GMT